Overview Statistics Trail Chart Weather Telemetry Raw packets
 

This is the latest recevied weather packets stored in our database for station/object KC1TEM-13. If no packets are shown the sender has not sent any weather packets the latest 10 day(s).

<< 14 15 16 17 18 19 20 >>
Time Temp. Humidity Pressure Rain* Wind** Luminosity Snow
1788521019 18.33° C 99% 1010.9 hPa 0 mm - 44 W/m² -
1788520714 18.33° C 99% 1010.8 hPa 0 mm - 38 W/m² -
1788520410 18.33° C 99% 1010.6 hPa 0 mm - 36 W/m² -
1788520105 18.33° C 99% 1010.4 hPa 0 mm - 32 W/m² -
1788519804 18.33° C 99% 1010.3 hPa 0 mm - 30 W/m² -
1788519504 18.33° C 99% 1010.6 hPa 0 mm - 24 W/m² -
1788519199 17.78° C 99% 1010.4 hPa 0 mm - 20 W/m² -
1788518894 17.78° C 99% 1010.5 hPa 0 mm - 16 W/m² -
1788518590 17.78° C 99% 1010.5 hPa 0 mm - 14 W/m² -
1788518287 17.78° C 99% 1010.6 hPa 0 mm - 11 W/m² -
1788517986 17.78° C 99% 1010.7 hPa 0 mm - 9 W/m² -
1788517682 17.78° C 99% 1010.6 hPa 0 mm - 6 W/m² -
1788517377 17.78° C 99% 1010.6 hPa 0 mm - 5 W/m² -
1788517074 17.78° C 99% 1010.4 hPa 0 mm - 3 W/m² -
1788516769 17.78° C 99% 1010.5 hPa 0 mm - 2 W/m² -
1788516465 17.78° C 99% 1010.5 hPa 0 mm - 1 W/m² -
1788516161 17.78° C 99% 1010.6 hPa 0 mm - 0 W/m² -
1788515860 17.78° C 99% 1010.6 hPa 0 mm - 0 W/m² -
1788515555 17.78° C 99% 1010.4 hPa 0 mm - 0 W/m² -
1788515251 17.78° C 99% 1010.7 hPa 0 mm - 0 W/m² -
1788514951 17.78° C 99% 1010.5 hPa 0 mm - 0 W/m² -
1788514647 17.78° C 99% 1010.5 hPa 0 mm - 0 W/m² -
1788514347 17.78° C 99% 1010.3 hPa 0 mm - 0 W/m² -
1788514042 17.78° C 99% 1010.5 hPa 0 mm - 0 W/m² -
1788513739 17.78° C 99% 1010.5 hPa 0 mm - 0 W/m² -

* Rain latest hour (hover to see other rain measurements)
** Current wind speed in m/s (hover to see current wind gust speed)